EW4685 Weather Reports


time (UTC)temp
F
wind
direction
speed
knots
gust
knots
rain 1hr
in
rain 24hr
in
rain mn
in
humidity
%
barometer
mb
20260505101950 49 42 0.0 0.0 0.00 0.00 0.00 86 1021.1
20260505101448 49 42 0.0 0.0 0.00 0.00 0.00 86 1021.0
20260505100949 49 42 0.0 1.7 0.00 0.00 0.00 86 1020.9
20260505100448 49 35 0.0 3.5 0.00 0.00 0.00 86 1020.8
20260505095947 49 77 0.0 3.5 0.00 0.00 0.00 87 1020.8
20260505095446 49 1 0.0 0.0 0.00 0.00 0.00 86 1020.7
20260505094946 49 0 0.0 0.0 0.00 0.00 0.00 86 1020.7
20260505094446 49 49 0.0 0.0 0.00 0.00 0.00 85 1020.7
20260505093946 49 49 0.0 0.0 0.00 0.00 0.00 84 1020.6
20260505093444 50 49 0.0 0.0 0.00 0.00 0.00 82 1020.5
20260505093201 51 49 0.0 0.0 0.00 0.00 0.00 81 1020.5
20260505092441 51 49 0.0 0.0 0.00 0.00 0.00 81 1020.4
20260505091940 51 49 0.0 0.0 0.00 0.00 0.00 81 1020.4
20260505091438 52 49 0.0 1.7 0.00 0.00 0.00 80 1020.2
20260505090939 52 49 0.0 1.7 0.00 0.00 0.00 80 1020.2
20260505090435 52 40 0.0 3.5 0.00 0.00 0.00 79 1020.2
20260505085936 52 16 0.0 3.5 0.00 0.00 0.00 79 1020.1
20260505085434 53 57 0.0 3.5 0.00 0.00 0.00 78 1019.9
20260505084933 53 38 0.0 3.5 0.00 0.00 0.00 78 1019.9
20260505084920 53 17 0.9 3.5 0.00 0.00 0.00 78 1019.8
20260505083932 53 8 0.9 3.5 0.00 0.00 0.00 77 1019.6
20260505083650 53 45 0.9 3.5 0.00 0.00 0.00 77 1019.6
20260505083413 53 4 1.7 3.5 0.00 0.00 0.00 76 1019.5
20260505082435 53 22 0.9 3.5 0.00 0.00 0.00 76 1019.4
20260505081933 54 322 0.0 3.5 0.00 0.00 0.00 76 1019.3
20260505081432 54 348 0.0 3.5 0.00 0.00 0.00 75 1019.3
20260505081154 54 64 0.9 3.5 0.00 0.00 0.00 75 1019.3
20260505080656 54 25 0.9 4.3 0.00 0.00 0.00 74 1019.2
20260505080155 55 32 0.9 5.2 0.00 0.00 0.00 74 1019.2
20260505075433 55 52 0.0 5.2 0.00 0.00 0.00 73 1019.1
20260505074939 55 61 0.9 4.3 0.00 0.00 0.00 72 1019.1
20260505074434 56 334 0.9 3.5 0.00 0.00 0.00 72 1019.0
20260505073933 56 48 0.9 3.5 0.00 0.00 0.00 72 1019.0
20260505073433 56 1 0.9 7.0 0.00 0.00 0.00 71 1018.9
20260505073426 56 36 0.9 7.0 0.00 0.00 0.00 70 1018.8
20260505072433 57 45 0.9 4.3 0.00 0.00 0.00 69 1018.7
20260505071926 57 11 0.9 4.3 0.00 0.00 0.00 68 1018.6
20260505071425 58 18 0.9 3.5 0.00 0.00 0.00 67 1018.5
20260505070910 58 7 0.9 5.2 0.00 0.00 0.00 67 1018.4
20260505070629 58 337 1.7 5.2 0.00 0.00 0.00 66 1018.2
20260505065903 58 20 0.9 4.3 0.00 0.00 0.00 66 1018.2
20260505065403 59 55 1.7 6.1 0.00 0.00 0.00 66 1018.2
20260505064902 59 298 2.6 6.1 0.00 0.00 0.00 65 1018.1
20260505064402 60 44 1.7 5.2 0.00 0.00 0.00 64 1018.1
20260505063901 60 28 0.9 5.2 0.00 0.00 0.00 64 1017.9
20260505063356 60 20 1.7 7.0 0.00 0.00 0.00 64 1017.9
20260505062856 60 71 2.6 7.0 0.00 0.00 0.00 63 1017.9
20260505062400 60 302 1.7 7.0 0.00 0.00 0.00 63 1017.8
20260505061857 61 61 1.7 7.0 0.00 0.00 0.00 63 1017.8
20260505061619 61 287 2.6 7.8 0.00 0.00 0.00 63 1017.7
20260505060854 61 43 3.5 7.8 0.00 0.00 0.00 62 1017.7
20260505060353 61 51 2.6 7.0 0.00 0.00 0.00 62 1017.6
20260505055853 62 42 3.5 11.3 0.00 0.00 0.00 60 1017.6
20260505055618 62 10 3.5 11.3 0.00 0.00 0.00 60 1017.4
20260505054852 62 67 3.5 9.6 0.00 0.00 0.00 59 1017.4
20260505054352 62 59 3.5 8.7 0.00 0.00 0.00 59 1017.4
20260505053847 62 38 3.5 8.7 0.00 0.00 0.00 58 1017.3
20260505053340 62 336 2.6 7.0 0.00 0.00 0.00 58 1017.3
20260505053056 63 67 1.7 7.0 0.00 0.00 0.00 58 1017.3
20260505052329 63 284 1.7 5.2 0.00 0.00 0.00 57 1017.2
20260505051822 63 50 1.7 5.2 0.00 0.00 0.00 57 1017.2
20260505051316 63 9 1.7 6.1 0.00 0.00 0.00 58 1017.2
20260505050809 63 31 2.6 7.0 0.00 0.00 0.00 57 1017.1
20260505050304 63 322 2.6 7.0 0.00 0.00 0.00 57 1017.1
20260505041709 62 299 2.6 10.4 0.00 0.00 0.00 60 1016.9
20260505041202 62 325 3.5 10.4 0.00 0.01 0.00 60 1016.9
20260505040656 61 289 3.5 8.7 0.00 0.01 0.00 60 1016.9
20260505040151 62 331 2.6 9.6 0.00 0.01 0.00 60 1017.0
20260505035913 62 306 3.5 11.3 0.00 0.01 0.00 61 1017.0
20260505035139 61 44 3.5 11.3 0.00 0.01 0.00 61 1017.0
20260505034632 61 329 3.5 9.6 0.00 0.02 0.00 61 1017.1
20260505034127 62 334 2.6 9.6 0.00 0.02 0.00 60 1017.0
20260505033620 62 270 2.6 7.0 0.00 0.02 0.00 60 1017.0
20260505033121 61 310 3.5 7.8 0.00 0.05 0.00 61 1017.0
20260505032613 61 12 2.6 7.8 0.00 0.05 0.00 59 1017.1
20260505032547 61 33 2.6 7.8 0.00 0.05 0.00 60 1017.1
20260505031556 61 284 2.6 8.7 0.00 0.05 0.00 60 1017.2
20260505031050 62 8 2.6 8.7 0.00 0.05 0.00 58 1017.2
20260505031036 62 14 1.7 7.8 0.00 0.05 0.00 59 1017.3
20260505030043 61 319 1.7 7.8 0.00 0.05 0.00 59 1017.3
20260505025533 61 295 1.7 9.6 0.00 0.05 0.00 58 1017.4
20260505025026 62 36 1.7 8.7 0.00 0.05 0.00 58 1017.4
20260505024520 62 43 1.7 8.7 0.00 0.05 0.00 58 1017.4
20260505024016 62 325 1.7 7.8 0.00 0.05 0.00 56 1017.5
20260505023513 62 17 1.7 6.1 0.00 0.05 0.00 57 1017.5
20260505023227 62 303 1.7 6.1 0.00 0.05 0.00 58 1017.6
20260505022719 62 36 1.7 7.0 0.00 0.05 0.00 57 1017.6
20260505021950 62 306 1.7 7.0 0.00 0.05 0.00 56 1017.7
20260505021933 62 294 0.9 5.2 0.00 0.05 0.00 55 1017.9
20260505020938 61 44 0.9 5.2 0.00 0.05 0.00 58 1018.0
20260505020438 61 298 0.9 5.2 0.00 0.05 0.00 57 1017.9
20260505015928 61 272 0.9 5.2 0.00 0.05 0.00 57 1017.9
20260505015420 61 48 0.9 5.2 0.00 0.05 0.00 58 1018.1
20260505014916 61 355 0.9 5.2 0.00 0.05 0.00 58 1018.2
20260505014409 60 254 0.9 4.3 0.00 0.05 0.00 61 1018.2
20260505013902 60 16 1.7 6.1 0.00 0.05 0.00 59 1018.4
20260505013356 60 48 2.6 6.1 0.00 0.05 0.00 59 1018.5
20260505013116 60 52 2.6 7.0 0.00 0.05 0.00 61 1018.5
20260505012350 60 19 1.7 9.6 0.00 0.05 0.00 61 1018.5
20260505011850 60 292 1.7 9.6 0.00 0.05 0.00 62 1018.4
20260505011611 60 235 1.7 6.1 0.00 0.05 0.00 63 1018.5
20260505010852 59 104 2.6 6.1 0.00 0.05 0.00 63 1018.6
20260505010348 59 2 2.6 6.1 0.00 0.05 0.00 60 1018.6
20260505010109 59 304 1.7 6.1 0.00 0.05 0.00 59 1018.6
20260505005618 59 353 0.9 5.2 0.00 0.05 0.00 59 1018.5
20260505004848 59 56 1.7 7.0 0.00 0.05 0.00 59 1018.6
20260505004349 59 63 3.5 9.6 0.00 0.05 0.00 59 1018.6
20260505003846 59 344 2.6 9.6 0.00 0.05 0.00 58 1018.6
20260505003347 59 27 1.7 7.8 0.00 0.06 0.00 60 1018.5
20260505002848 59 307 1.7 7.8 0.00 0.06 0.00 59 1018.4
20260505002612 59 295 1.7 6.1 0.00 0.06 0.00 59 1018.4
20260505001846 59 279 0.9 6.1 0.00 0.09 0.00 58 1018.2
20260505001348 58 22 0.9 4.3 0.00 0.10 0.00 62 1018.2
20260505001100 58 270 0.9 4.3 0.00 0.10 0.00 61 1018.1
20260505000343 58 26 0.9 4.3 0.00 0.10 0.00 60 1018.1
20260504235842 58 331 0.9 4.3 0.00 0.10 0.00 60 1018.0
20260504235342 58 48 0.9 4.3 0.00 0.11 0.00 61 1018.0
20260504235110 58 54 0.9 4.3 0.00 0.11 0.00 62 1018.0
20260504234342 58 26 0.9 6.1 0.00 0.13 0.00 63 1018.2
20260504233842 57 274 0.9 6.1 0.00 0.16 0.00 62 1018.1
20260504233340 57 356 0.9 3.5 0.00 0.17 0.00 63 1018.1
20260504232842 57 286 0.9 5.2 0.00 0.17 0.00 63 1017.8
20260504232602 57 29 1.7 6.1 0.00 0.17 0.00 66 1017.8
20260504231840 56 33 1.7 6.1 0.00 0.18 0.00 66 1017.6
20260504231340 56 243 1.7 6.1 0.00 0.19 0.00 67 1017.6
20260504230840 56 276 0.9 4.3 0.00 0.19 0.00 66 1017.7
20260504230340 57 332 0.0 3.5 0.00 0.19 0.00 66 1017.7
20260504230058 57 313 0.0 2.6 0.00 0.19 0.00 67 1017.8
20260504225342 56 351 0.0 2.6 0.00 0.20 0.00 67 1017.8
20260504224840 56 299 0.0 1.7 0.00 0.21 0.00 70 1017.9
20260504224340 55 57 0.0 3.5 0.00 0.24 0.00 70 1017.7
20260504223840 55 291 0.9 5.2 0.00 0.26 0.00 72 1017.7
20260504223340 54 280 0.9 5.2 0.00 0.28 0.00 71 1017.7
20260504222841 54 287 0.9 4.3 0.00 0.30 0.00 72 1017.6
20260504222340 53 271 0.9 6.1 0.00 0.36 0.00 74 1017.5
20260504221840 53 339 0.9 6.1 0.00 0.39 0.00 75 1017.3
20260504221341 52 305 0.9 3.5 0.00 0.40 0.00 79 1017.3
20260504220841 51 311 0.9 7.0 0.00 0.45 0.00 80 1017.2
20260504220339 51 334 1.7 7.0 0.00 0.46 0.00 81 1017.3
20260504215840 50 298 0.9 4.3 0.00 0.46 0.00 82 1017.3
20260504215610 50 0 0.9 4.3 0.00 0.46 0.00 83 1017.2
20260504214840 49 331 0.9 2.6 0.00 0.46 0.00 83 1017.2
20260504214340 49 284 0.9 4.3 0.00 0.46 0.00 84 1017.3
20260504213839 49 41 0.9 4.3 0.00 0.46 0.00 84 1017.3
20260504213821 48 306 0.0 2.6 0.00 0.46 0.00 85 1017.2
20260504213059 47 344 0.0 1.7 0.00 0.46 0.00 86 1017.2
20260504212555 47 55 0.0 0.0 0.00 0.46 0.00 87 1017.1
20260504211837 47 338 0.0 0.0 0.00 0.46 0.00 87 1017.1
20260504211602 47 338 0.0 0.0 0.00 0.46 0.00 87 1017.1
20260504210835 47 338 0.0 0.0 0.00 0.46 0.00 87 1017.1
20260504210559 47 338 0.0 0.0 0.00 0.46 0.00 86 1017.0
20260504205833 47 338 0.0 0.0 0.00 0.46 0.00 85 1016.9
20260504205333 47 338 0.0 0.0 0.00 0.46 0.00 84 1016.8
20260504205048 48 338 0.0 0.0 0.00 0.46 0.00 83 1016.7
20260504204327 48 338 0.0 0.0 0.00 0.46 0.00 82 1016.5
20260504203827 49 338 0.0 0.9 0.00 0.47 0.00 81 1016.5
20260504203326 49 338 0.0 0.9 0.00 0.47 0.00 80 1016.4
20260504202825 49 100 0.0 0.0 0.00 0.47 0.00 80 1016.4
20260504202553 49 100 0.0 3.5 0.00 0.47 0.00 80 1016.3
20260504201824 49 297 0.0 3.5 0.00 0.48 0.00 80 1016.2
20260504201322 49 282 0.0 1.7 0.00 0.48 0.00 79 1016.2
20260504200822 49 299 0.9 5.2 0.00 0.48 0.00 79 1016.1
20260504200318 49 286 0.9 5.2 0.00 0.48 0.00 80 1016.0
20260504195816 49 296 0.0 2.6 0.00 0.48 0.00 81 1015.9
20260504195313 49 280 0.0 2.6 0.00 0.49 0.00 80 1015.9
20260504195033 50 85 0.9 6.1 0.00 0.49 0.00 79 1016.0
20260504194531 50 85 0.9 6.1 0.00 0.51 0.00 79 1015.9
20260504194034 50 50 1.7 7.0 0.00 0.52 0.00 80 1015.8
20260504193311 49 41 1.7 7.0 0.00 0.52 0.00 81 1015.7
20260504192813 49 32 0.9 5.2 0.00 0.52 0.00 82 1015.7
20260504192313 49 46 1.7 7.8 0.00 0.53 0.00 82 1015.5
20260504191812 49 55 1.7 7.8 0.00 0.53 0.00 83 1015.6
20260504191312 49 46 1.7 6.1 0.00 0.53 0.00 84 1015.5
20260504190813 49 39 0.9 4.3 0.00 0.53 0.00 85 1015.5
20260504190524 48 5 0.9 4.3 0.00 0.53 0.00 86 1015.4
20260504185801 48 17 0.9 4.3 0.00 0.53 0.00 86 1015.3
20260504185255 48 29 0.9 4.3 0.00 0.53 0.00 86 1015.3
20260504184746 49 336 1.7 6.1 0.00 0.53 0.00 86 1015.3
20260504184242 49 52 1.7 6.1 0.00 0.53 0.00 85 1015.2
20260504183735 49 26 1.7 5.2 0.00 0.53 0.00 84 1015.1
20260504183229 49 34 1.7 5.2 0.00 0.53 0.00 84 1014.8
20260504182723 49 48 1.7 5.2 0.00 0.53 0.00 83 1014.8
20260504182440 49 50 0.9 5.2 0.00 0.53 0.00 83 1014.8
20260504181937 50 30 0.9 5.2 0.00 0.53 0.00 82 1014.8
20260504181249 50 48 0.9 5.2 0.00 0.53 0.00 82 1014.8
20260504180154 50 55 0.9 3.5 0.00 0.54 0.00 81 1014.8
20260504175649 50 19 0.9 3.5 0.00 0.54 0.00 80 1014.7
20260504175142 51 314 0.9 6.1 0.00 0.54 0.00 80 1014.7
20260504174635 51 303 0.9 7.0 0.00 0.54 0.00 80 1014.8
20260504174129 51 294 0.9 7.0 0.00 0.54 0.00 80 1014.8
20260504173623 51 308 0.9 4.3 0.00 0.54 0.00 80 1014.7
20260504173343 51 346 0.9 4.3 0.00 0.54 0.00 80 1014.7
20260504172832 50 350 0.9 6.1 0.00 0.54 0.00 81 1014.7
20260504172105 50 38 1.7 6.1 0.00 0.54 0.00 81 1014.7
20260504171559 50 261 0.9 4.3 0.00 0.55 0.00 81 1014.7
20260504171058 51 55 0.9 3.5 0.00 0.57 0.00 80 1014.6
20260504170547 51 37 0.9 6.1 0.00 0.58 0.00 79 1014.7
20260504170304 51 300 0.9 6.1 0.00 0.58 0.00 79 1014.7
20260504151011 51 284 0.9 5.2 0.00 0.64 0.00 79 1015.5
20260504150514 50 284 0.9 5.2 0.00 0.64 0.00 80 1015.5
20260504141007 50 32 1.7 5.2 0.00 0.69 0.00 82 1015.8
20260504140505 50 14 1.7 5.2 0.00 0.69 0.00 82 1015.8
20260504130359 50 329 0.9 5.2 0.00 0.70 0.69 85 1016.1
20260504120117 51 14 1.7 5.2 0.00 0.71 0.69 83 1016.5
20260504110315 50 31 0.0 2.6 0.00 0.71 0.69 84 1016.5